Regional Weather Roundup
Issued by NWS

Home | Current Version | Previous Version | Graphics & Text | Print | Product List | Glossary On
Versions: 1 2 3 4 5 6 7 8 9 10 11 12 13 14 15 16 17 18 19 20 21 22 23 24 25 26 27 28 29 30 31 32 33 34 35 36 37 38 39 40 41 42 43 44 45 46 47 48 49 50
000
ASUS43 KFSD 031302
RWRSD

WEATHER ROUNDUP FOR SOUTH DAKOTA
NATIONAL WEATHER SERVICE SIOUX FALLS SD
800 AM CDT FRI JUL 03 2015

NOTE: "FAIR" INDICATES FEW OR NO CLOUDS BELOW 12,000 FEET WITH NO
SIGNIFICANT WEATHER AND/OR OBSTRUCTIONS TO VISIBILITY.


SDZ001>005-009-010-012>017-031400-
NORTHWEST AND NORTH CENTRAL SOUTH DAKOTA

CITY           SKY/WX    TMP DP  RH WIND       PRES   REMARKS
BUFFALO          N/A     62  58  86 E3        30.01S
FAITH            N/A     64  59  83 CALM      30.05S
MOBRIDGE       CLOUDY    66  64  93 NW3       29.99S FOG
$$

SDZ012>016-024>037-041>051-057-063-072>074-031400-
SOUTHWEST AND SOUTH CENTRAL SOUTH DAKOTA

CITY           SKY/WX    TMP DP  RH WIND       PRES   REMARKS
RAPID CTY ARPT SUNNY     64  57  78 CALM      30.09S HAZE
PIERRE         MOSUNNY   64  63  96 W3        30.00S FOG
CUSTER         SUNNY     60  52  74 W3        30.20S HAZE
ELLSWORTH AFB  SUNNY     63  57  81 SW3       30.08S
PHILIP         SUNNY     61  59  93 W3        30.05R
PINE RIDGE     SUNNY     59  55  87 CALM      30.11S FOG
WINNER         FAIR      65  61  87 SW5       30.04R
$$

SDZ004>011-016>023-039-040-031400-
NORTHEAST SOUTH DAKOTA

CITY           SKY/WX    TMP DP  RH WIND       PRES   REMARKS
ABERDEEN       MOSUNNY   62  61  96 S5        29.98S FOG
WATERTOWN      SUNNY     62  59  90 SW3       30.01R FOG
BROOKINGS      SUNNY     57  54  88 W3        30.04S
SISSETON         N/A     68  62  81 W12       29.95S
$$

SDZ017-020-022-023-036>040-048>070-031400-
SOUTHEAST SOUTH DAKOTA

CITY           SKY/WX    TMP DP  RH WIND       PRES   REMARKS
SIOUX FALLS    SUNNY     57  55  93 CALM      30.03R
HURON          FOG       59  59 100 S3        30.00S VSB 1/4
CHAMBERLAIN    FOG       63  63 100 CALM      30.02S VSB<1/4
MITCHELL       FOG       62  62 100 S3        30.02S VSB 1/4
YANKTON        CLOUDY    59  57  94 CALM      30.01S
$$

ABBREVIATIONS USED IN REMARKS
   TC - TEMPERATURE IN CELSIUS
  WCI - WIND CHILL INDEX
   HX - HEAT INDEX
  VSB - VISIBILITY




USA.gov is the U.S. government's official web portal to all federal, state and local government web resources and services.